Location: Jaite
(41.2884°N, 81.5737°W)
Time: 22:39:23
(UTC+00:00)

STARLINK-48 - Pass Details

Date: 18 January 2020
Orbit: 506 x 508 km, 53.0° (Epoch: 18 February)

Event Time Altitude Azimuth Distance (km) Brightness Sun altitude
Exits shadow 11:14:33 41° 278° (W) 739 3.7 -17.4°
Maximum altitude 11:15:29 53° 326° (NW) 625 3.6 -17.3°
Drops below altitude 10° 11:19:19 10° 45° (NE) 1,723 6.6 -16.6°
Sets 11:21:33 0° 50° (NE) 2,611 7.6 -16.1°
